TimeEST,TemperatureF,Dew PointF,Humidity,Sea Level PressureIn,VisibilityMPH,Wind Direction,Wind SpeedMPH,Gust SpeedMPH,PrecipitationIn,Events,Conditions,WindDirDegrees,DateUTC
12:53 AM,45.0,28.9,53,29.56,10.0,SW,17.3,36.8,0.01,Rain,Light Rain,230,2013-01-20 05:53:00
1:53 AM,44.1,28.9,55,29.53,10.0,SSW,13.8,24.2,0.00,,Overcast,210,2013-01-20 06:53:00
2:53 AM,44.1,28.9,55,29.47,10.0,SSE,10.4,-,0.00,,Overcast,160,2013-01-20 07:53:00
3:53 AM,45.0,27.0,49,29.39,10.0,South,17.3,26.5,N/A,,Overcast,190,2013-01-20 08:53:00
4:53 AM,46.0,26.1,46,29.33,10.0,South,24.2,29.9,N/A,,Overcast,190,2013-01-20 09:53:00
5:53 AM,46.0,26.1,46,29.28,10.0,South,26.5,36.8,N/A,,Overcast,190,2013-01-20 10:53:00
6:53 AM,39.2,33.8,81,29.28,10.0,SSW,21.9,29.9,N/A,,Overcast,210,2013-01-20 11:53:00
7:02 AM,39.2,33.8,81,29.33,2.5,WSW,35.7,49.5,0.02,Rain,Rain,240,2013-01-20 12:02:00
7:16 AM,35.6,30.2,81,29.35,5.0,WSW,27.6,46.0,0.03,Snow,Light Snow,250,2013-01-20 12:16:00
7:40 AM,35.6,30.2,81,29.33,10.0,SSW,19.6,32.2,0.03,,Overcast,200,2013-01-20 12:40:00
7:53 AM,35.1,30.9,85,29.37,10.0,SW,21.9,27.6,0.03,,Overcast,220,2013-01-20 12:53:00
8:12 AM,35.6,30.2,81,29.38,10.0,SW,18.4,38.0,N/A,,Overcast,230,2013-01-20 13:12:00
8:45 AM,35.6,30.2,81,29.39,10.0,SW,23.0,32.2,N/A,,Overcast,230,2013-01-20 13:45:00
8:53 AM,36.0,30.9,82,29.42,10.0,SW,20.7,32.2,N/A,,Overcast,230,2013-01-20 13:53:00
9:53 AM,37.0,28.0,70,29.43,10.0,WSW,21.9,35.7,N/A,,Mostly Cloudy,240,2013-01-20 14:53:00
10:45 AM,33.8,24.8,70,29.47,1.8,WSW,27.6,44.9,0.00,Snow,Light Snow,250,2013-01-20 15:45:00
10:51 AM,33.8,26.6,75,29.47,2.0,WSW,20.7,35.7,0.00,Snow,Light Snow,250,2013-01-20 15:51:00
10:52 AM,34.0,26.1,73,29.49,2.0,WSW,20.7,35.7,0.00,Snow,Light Snow,250,2013-01-20 15:52:00
11:00 AM,35.6,26.6,70,29.48,9.0,WSW,24.2,40.3,0.00,Snow,Light Snow,240,2013-01-20 16:00:00
11:14 AM,35.6,24.8,65,29.48,10.0,WSW,21.9,40.3,0.00,,Overcast,240,2013-01-20 16:14:00
11:53 AM,35.1,21.0,57,29.52,10.0,WSW,29.9,49.5,0.02,,Overcast,240,2013-01-20 16:53:00
12:53 PM,32.0,16.0,52,29.57,9.0,WSW,21.9,41.4,0.00,,Overcast,250,2013-01-20 17:53:00
1:53 PM,30.0,12.9,49,29.64,10.0,West,26.5,47.2,0.00,,Overcast,260,2013-01-20 18:53:00
2:53 PM,23.0,16.0,74,29.74,8.0,NW,15.0,24.2,0.00,Snow,Light Snow,310,2013-01-20 19:53:00
3:53 PM,19.9,10.9,68,29.82,8.0,WNW,18.4,24.2,0.00,,Overcast,300,2013-01-20 20:53:00
4:53 PM,17.1,5.0,59,29.87,10.0,WNW,11.5,24.2,N/A,,Mostly Cloudy,290,2013-01-20 21:53:00
5:53 PM,16.0,3.0,57,29.93,10.0,WNW,12.7,-,N/A,,Partly Cloudy,300,2013-01-20 22:53:00
6:53 PM,15.1,3.0,59,29.97,10.0,WNW,15.0,18.4,N/A,,Overcast,290,2013-01-20 23:53:00
7:53 PM,14.0,3.0,62,30.00,10.0,West,15.0,21.9,N/A,,Mostly Cloudy,270,2013-01-21 00:53:00
8:53 PM,12.0,1.9,64,30.02,10.0,WNW,13.8,-,N/A,,Mostly Cloudy,290,2013-01-21 01:53:00
9:53 PM,10.0,-0.0,64,30.05,10.0,WNW,11.5,-,N/A,,Clear,290,2013-01-21 02:53:00
10:53 PM,9.0,-0.9,64,30.07,10.0,WNW,12.7,-,N/A,,Clear,290,2013-01-21 03:53:00
11:53 PM,7.0,-2.0,67,30.08,10.0,NW,11.5,-,N/A,,Partly Cloudy,310,2013-01-21 04:53:00